GEFSCGP_con_probscp_132.txt.gz
Probability
0 0 0 0 0 0 0 0 0 0 0 0 0 1 2 5 13 25 40 46 43 41 43 48 54 58 56 51 43 36 32 30 24 17 11 8 7 7 7 6 4 2 3 3
0 0 0 0 0 0 0 0 0 0 0 0 0 0 1 4 11 24 36 42 43 42 45 50 55 58 57 50 41 34 30 26 21 16 11 8 6 7 7 5 3 2 3 3
0 0 0 0 0 0 0 0 0 0 0 0 0 0 0 3 9 18 26 34 39 42 46 51 54 54 52 45 37 30 25 21 17 14 11 8 5 5 5 4 2 2 2 2
0 0 0 0 0 0 0 0 0 0 0 0 0 0 1 3 7 11 17 25 32 34 38 44 48 46 42 37 30 24 22 20 16 13 11 8 4 4 3 2 3 2 1 2
0 0 0 0 0 0 0 0 0 0 0 0 0 0 1 3 6 7 10 17 21 24 28 34 38 37 34 29 23 19 19 20 16 12 10 7 5 3 2 2 3 1 1 2
0 0 0 0 0 0 0 0 0 0 0 0 0 0 1 2 4 6 7 9 12 16 23 27 28 28 27 23 18 15 16 17 15 11 9 8 5 2 1 1 1 1 1 1
0 0 0 0 0 0 0 0 0 0 0 0 0 0 0 1 3 6 6 7 8 13 20 23 23 24 24 20 14 12 12 12 12 11 10 8 5 2 1 0 1 1 2 2
0 0 0 0 0 0 0 0 0 0 0 0 0 0 1 2 4 6 6 7 9 12 16 19 19 21 22 17 12 10 9 10 12 12 11 8 5 2 1 0 1 2 2 2
0 0 0 0 0 0 0 0 0 0 0 0 0 0 1 3 4 5 6 7 9 11 13 15 17 18 18 14 11 10 10 11 13 14 12 9 5 3 1 0 1 2 2 1
0 0 0 0 0 0 0 0 0 0 0 0 0 0 1 2 4 6 8 8 8 10 13 15 16 16 14 11 9 10 12 14 14 14 12 9 6 3 1 0 1 1 1 0
0 0 0 0 0 0 0 0 0 0 0 0 0 0 1 3 5 8 10 9 10 12 15 15 15 14 11 8 7 8 11 13 13 11 10 8 5 2 0 0 0 0 0 0
0 0 0 0 0 0 0 0 0 0 0 0 0 1 4 8 10 11 12 11 12 14 15 15 13 11 9 6 6 7 9 11 10 8 6 4 2 0 0 0 0 0 0 1
0 0 0 0 0 0 0 0 0 0 0 0 0 2 6 12 15 15 14 13 14 15 14 13 12 10 8 6 6 6 7 8 7 5 3 1 0 0 1 1 0 1 1 2
0 0 0 0 0 0 0 0 0 0 0 0 1 3 7 13 19 19 17 14 13 12 11 11 10 9 8 7 6 6 5 5 5 3 1 1 1 1 1 1 1 2 3 3
0 0 0 0 0 0 0 0 0 0 0 1 3 5 8 14 19 21 18 14 11 8 8 10 9 9 8 7 6 6 5 4 3 2 1 2 1 1 1 1 2 3 3 4
0 0 0 0 0 0 0 0 0 0 1 3 6 8 10 16 22 22 17 14 10 8 9 9 9 9 8 7 6 6 5 4 4 3 2 2 1 1 2 3 3 3 4 5
0 0 0 0 0 0 0 0 1 1 3 6 10 11 13 20 24 20 15 13 13 12 12 11 9 8 7 5 4 5 6 5 5 5 3 2 0 0 1 3 4 4 4 6
0 0 0 0 0 0 0 1 2 3 5 8 9 11 14 18 19 15 12 12 14 14 13 11 9 7 5 3 3 5 7 7 6 4 3 1 0 0 0 1 2 3 4 4
0 0 0 0 0 0 0 1 2 3 5 7 7 8 10 12 12 12 11 11 13 14 13 11 8 6 4 3 4 7 9 9 7 4 2 2 2 2 2 2 2 2 2 2
0 0 0 0 0 0 1 1 2 2 4 5 5 5 5 7 9 10 11 11 12 12 12 11 9 7 6 5 7 9 9 8 7 5 4 5 5 6 5 5 3 3 2 1
0 0 0 0 0 0 1 2 2 1 3 4 5 4 4 4 6 7 10 11 10 10 13 13 10 9 8 7 8 9 8 7 7 7 6 7 8 8 8 6 4 3 2 1
0 0 0 0 0 0 2 3 2 1 1 2 3 3 2 2 3 5 7 7 5 7 11 11 9 8 8 7 8 9 8 7 7 8 7 6 7 7 7 6 4 3 2 1
0 0 0 0 0 0 1 2 2 1 0 1 1 1 1 1 1 3 3 3 2 3 5 6 6 6 6 6 6 7 6 5 6 6 5 4 5 5 5 4 3 2 2 1
0 0 0 0 0 0 0 1 1 0 0 0 0 0 0 0 0 1 1 1 0 1 2 3 3 3 3 2 3 4 3 3 4 4 3 3 3 2 2 1 1 1 1 0
0 0 0 0 0 0 0 0 0 0 0 0 0 0 0 0 0 0 0 0 0 0 1 1 1 1 1 0 1 2 2 2 4 4 3 3 2 1 0 0 0 0 0 0
0 0 0 0 0 0 0 1 1 1 0 0 0 0 0 0 0 0 0 0 0 0 0 0 0 0 0 0 0 1 1 1 2 3 3 2 1 0 0 0 0 0 0 0

GEFSCGP_con_probscp_138.txt.gz
Probability
0 0 0 0 0 0 0 0 0 0 0 0 0 0 1 3 3 4 5 4 4 5 7 12 21 24 22 21 20 19 17 13 10 8 6 4 2 1 0 0 0 0 0 0
0 0 0 0 0 0 0 0 0 0 0 0 0 0 1 2 2 3 3 2 3 6 10 15 22 26 25 22 19 16 14 11 8 6 4 3 3 2 1 0 0 0 0 0
0 0 0 0 0 0 0 0 0 0 0 0 0 0 0 1 1 1 1 1 3 8 13 17 23 28 29 25 18 13 11 10 7 5 4 3 3 3 3 1 0 0 0 0
0 0 0 0 0 0 0 0 0 0 0 0 0 0 0 0 0 0 1 2 4 9 13 17 21 26 28 24 17 12 11 10 9 8 7 5 4 3 2 1 0 0 0 0
0 0 0 0 0 0 0 0 0 0 0 0 0 0 0 0 0 1 2 2 4 8 13 16 18 21 22 19 15 12 10 9 9 10 9 8 5 2 1 0 0 0 0 0
0 0 0 0 0 0 0 0 0 0 0 0 0 0 0 0 0 1 3 3 4 8 12 15 15 16 16 15 14 12 9 6 8 10 10 8 6 2 0 0 0 0 0 0
0 0 0 0 0 0 0 0 0 0 0 0 0 0 0 0 0 1 4 5 6 7 10 12 13 13 13 13 11 10 8 6 7 9 9 8 6 3 1 0 0 0 0 0
0 0 0 0 0 0 0 0 0 0 0 0 0 0 0 0 0 1 4 5 5 5 7 9 10 11 11 10 8 6 7 7 7 8 9 9 8 5 2 1 0 0 0 0
0 0 0 0 0 0 0 0 0 0 0 0 0 0 0 0 0 1 2 3 4 4 5 6 8 9 9 7 5 4 5 7 7 7 8 9 8 5 3 1 0 0 0 0
0 0 0 0 0 0 0 0 0 0 0 0 0 0 0 1 1 0 1 3 3 4 4 4 6 7 7 6 4 3 3 4 5 6 7 8 6 4 3 1 0 0 0 0
0 0 0 0 0 0 0 0 0 0 0 0 0 0 0 1 2 2 2 3 3 3 3 4 5 6 6 6 4 2 2 3 4 5 6 6 4 3 2 1 0 0 0 0
0 0 0 0 0 0 0 0 0 0 0 0 0 0 1 2 3 3 3 3 3 3 3 3 4 5 6 6 4 2 1 2 4 6 6 5 3 1 1 0 0 0 0 0
0 0 0 0 0 0 0 0 0 0 0 0 0 1 2 2 3 4 3 2 3 3 2 2 3 4 6 6 4 2 1 2 3 5 6 5 3 1 1 0 0 0 1 1
0 0 0 0 0 0 0 0 0 0 0 0 1 2 3 2 3 4 3 2 2 2 1 2 2 3 5 5 3 2 2 2 1 2 4 4 3 3 2 1 1 1 2 2
0 0 0 0 0 0 0 0 0 0 0 0 1 2 2 2 4 5 3 2 1 1 0 1 1 1 3 3 3 3 3 2 1 1 2 3 3 3 2 2 2 2 3 3
0 0 0 0 0 0 0 0 0 0 0 0 1 1 1 2 4 5 4 3 3 1 0 0 1 1 1 2 4 4 4 3 2 2 2 3 3 2 1 1 1 2 3 3
0 0 0 0 0 0 0 0 0 0 0 0 1 2 2 2 3 4 4 5 5 3 1 1 2 2 1 2 3 4 4 3 2 2 2 2 2 1 0 0 0 1 1 2
0 0 0 0 0 0 0 0 0 0 0 1 3 5 6 5 4 3 4 5 5 4 2 1 2 3 2 1 2 2 2 2 2 2 2 1 1 0 0 0 0 0 0 1
0 0 0 0 0 0 0 0 0 0 0 2 5 8 8 6 4 2 2 2 2 1 1 1 2 2 1 1 1 1 0 1 1 1 1 1 0 0 0 0 0 0 0 0
0 0 0 0 0 0 0 0 0 0 0 2 5 8 6 4 2 1 1 1 0 0 0 0 1 1 0 0 0 0 0 1 1 1 0 0 0 0 0 1 1 1 1 0
0 0 0 0 0 0 0 0 0 0 0 1 3 4 3 1 0 1 1 0 0 0 0 0 1 1 0 0 0 0 0 1 1 1 0 0 0 0 1 2 2 2 1 1
0 0 0 0 0 0 0 0 0 0 0 1 2 1 0 0 0 0 0 0 0 0 0 0 1 1 0 0 0 0 0 0 1 1 1 1 0 1 1 3 3 3 1 0
0 0 0 0 0 0 0 0 0 0 0 0 0 0 0 0 0 0 0 0 0 0 0 0 0 0 0 0 0 0 0 0 0 1 2 1 0 1 2 2 2 2 1 1
0 0 0 0 0 0 0 0 0 0 0 0 0 0 0 0 0 0 0 0 0 0 0 0 0 0 0 0 0 0 0 0 0 1 1 0 0 1 1 1 1 1 1 1
0 0 0 0 0 0 0 0 0 0 0 0 0 0 0 0 0 0 0 0 0 0 0 0 0 0 0 0 0 0 0 0 0 0 0 0 0 0 0 0 0 0 0 1
0 0 0 0 0 0 0 0 0 0 0 0 0 0 0 0 0 0 0 0 0 0 0 0 0 0 0 0 0 0 0 0 0 0 0 0 0 0 0 0 0 0 0 0

GEFSCGP_con_probscp_144.txt.gz
Probability
0 0 0 0 0 0 0 0 0 0 0 0 0 0 0 1 1 4 8 10 10 10 13 21 27 27 30 35 34 31 27 28 31 29 25 22 19 18 17 13 9 6 3 2
0 0 0 0 0 0 0 0 0 0 0 0 0 0 0 1 3 6 8 8 7 8 14 24 31 32 34 39 38 33 29 27 29 29 27 24 20 17 15 12 9 7 6 5
0 0 0 0 0 0 0 0 0 0 0 0 0 0 0 1 3 5 6 5 5 7 12 22 30 34 36 40 39 33 29 27 26 25 24 22 19 16 14 11 10 10 9 8
0 0 0 0 0 0 0 0 0 0 0 0 0 0 0 0 1 3 4 4 4 6 10 16 25 31 33 33 31 28 27 26 24 21 20 19 16 14 13 12 12 12 10 8
0 0 0 0 0 0 0 0 0 0 0 0 0 0 0 0 1 3 3 3 4 7 10 13 20 25 26 24 22 21 24 25 24 21 20 19 15 14 14 13 13 11 9 6
0 0 0 0 0 0 0 0 0 0 0 0 0 0 0 1 2 3 5 5 6 9 13 15 17 19 18 16 15 17 21 24 23 21 20 18 16 14 13 13 11 9 6 5
0 0 0 0 0 0 0 0 0 0 0 0 0 0 0 1 2 4 7 8 9 12 18 19 18 15 11 10 12 14 19 23 22 21 20 18 16 13 11 11 9 7 5 4
0 0 0 0 0 0 0 0 0 0 0 0 0 0 1 1 2 5 9 12 13 15 18 19 17 10 6 7 10 13 18 21 21 22 21 19 15 12 10 9 7 6 5 5
0 0 0 0 0 0 0 0 0 0 0 0 0 0 1 2 4 7 10 12 14 15 16 16 13 8 5 6 9 11 13 17 19 21 22 19 14 11 9 7 7 7 6 6
0 0 0 0 0 0 0 0 0 0 0 0 0 0 2 5 7 9 9 8 9 11 12 13 12 10 9 9 9 9 10 14 16 19 21 18 13 9 7 7 7 8 9 9
0 0 0 0 0 0 0 0 0 0 0 0 0 0 3 7 9 8 6 5 7 8 9 11 13 15 15 12 9 9 11 13 14 15 16 16 12 8 7 7 7 9 12 14
0 0 0 0 0 0 0 0 0 0 0 0 0 1 4 7 8 6 3 4 9 11 10 10 14 17 18 15 11 9 10 11 11 10 10 11 10 8 9 9 8 9 13 16
0 0 0 0 0 0 0 0 0 0 0 0 0 1 3 6 7 5 3 6 11 13 13 14 17 19 19 17 14 11 8 7 5 5 5 6 8 10 10 10 8 9 12 14
0 0 0 0 0 0 0 0 0 0 0 0 0 1 5 7 7 6 6 9 12 15 18 19 20 21 21 20 17 13 9 5 2 3 4 4 8 11 11 10 9 9 10 11
0 0 0 0 0 0 0 0 0 0 0 0 1 4 8 9 8 7 7 8 10 14 18 20 20 19 19 19 16 14 10 6 4 4 4 5 7 10 10 9 8 8 8 8
0 0 0 0 0 0 0 0 0 0 0 0 2 7 11 12 11 10 8 7 8 12 15 16 15 14 14 14 13 11 10 9 7 4 4 5 7 8 7 6 6 7 7 7
0 0 0 0 0 0 0 0 0 0 1 2 4 8 11 14 16 16 13 10 10 13 14 13 12 11 11 10 8 7 7 8 7 5 5 6 7 7 6 5 4 5 5 6
2 2 1 0 0 0 0 0 0 1 2 3 5 8 10 14 19 19 16 15 15 15 14 13 11 10 10 10 8 6 6 6 6 6 7 9 9 7 6 5 4 3 3 5
6 5 2 0 0 0 0 0 0 1 2 3 4 7 10 11 14 15 15 16 17 17 15 13 11 10 11 12 10 7 6 5 4 6 8 8 8 7 6 5 4 3 3 4
7 6 3 0 0 0 1 1 1 1 2 3 4 6 7 8 9 12 13 13 15 16 15 13 11 10 12 13 11 7 5 4 3 3 5 5 6 6 6 5 3 3 3 3
6 5 3 0 0 1 2 1 2 5 8 9 9 8 7 8 11 13 12 10 10 12 12 12 11 10 11 10 7 4 3 2 2 3 3 4 5 6 6 5 4 3 3 3
9 9 7 4 3 4 4 4 7 13 16 15 15 13 11 10 9 9 8 7 6 7 9 11 11 10 8 6 3 1 1 1 2 2 3 4 6 6 6 5 4 4 4 4
15 15 13 9 7 7 6 8 11 15 18 18 17 16 11 6 4 4 5 5 4 5 7 10 11 10 8 5 3 2 1 1 2 2 2 4 6 6 5 5 4 5 5 5
19 17 15 11 7 5 5 7 9 11 13 14 13 10 6 2 2 4 5 4 3 3 6 9 10 10 9 6 4 3 3 4 4 3 3 4 5 5 4 3 4 4 4 4
18 16 13 10 5 1 1 3 4 6 7 7 6 4 2 1 1 4 4 3 1 2 4 6 8 8 7 6 5 4 5 6 6 5 4 3 4 3 2 2 2 2 1 1
14 13 11 8 4 1 0 1 2 4 5 4 2 2 1 1 1 2 2 1 1 2 2 3 4 4 4 5 5 4 5 6 6 5 4 2 2 1 1 1 1 0 0 0

GEFSCGP_con_probscp_150.txt.gz
Probability
0 0 0 0 0 0 0 0 0 0 0 0 0 1 1 1 2 9 24 40 48 49 53 61 66 70 75 80 82 79 74 69 63 54 47 42 37 33 30 27 25 23 19 19
0 0 0 0 0 0 0 0 0 0 0 0 0 1 1 0 2 9 22 36 45 50 58 66 70 72 76 81 82 78 73 70 64 57 50 44 38 34 31 30 28 24 20 19
0 0 0 0 0 0 0 0 0 0 0 0 0 1 1 1 2 7 17 27 37 49 62 69 71 72 75 78 76 70 68 66 61 57 52 45 38 34 33 34 33 28 23 20
0 0 0 0 0 0 0 0 0 0 0 0 0 0 2 4 4 6 12 20 27 40 56 64 64 65 68 69 67 63 62 60 57 53 51 46 38 34 35 38 37 33 28 23
0 0 0 0 0 0 0 0 0 0 0 0 0 0 3 7 7 8 12 17 21 29 44 54 56 55 58 59 58 60 61 58 53 48 46 44 39 34 33 36 37 35 30 25
0 0 0 0 0 0 0 0 0 0 0 0 0 0 3 8 9 10 13 17 19 24 36 48 51 50 50 51 52 55 57 53 46 42 40 38 36 32 28 28 30 30 27 24
0 0 0 0 0 0 0 0 0 0 0 0 0 1 3 7 9 10 14 17 19 25 36 46 49 47 44 43 43 46 47 44 38 36 35 34 32 28 24 22 23 24 23 20
0 0 0 0 0 0 0 0 0 0 0 0 0 2 5 8 9 11 14 16 19 27 37 44 45 42 37 33 33 35 36 35 33 33 34 34 32 26 21 19 19 20 19 17
0 0 0 0 0 0 0 0 0 0 0 0 0 4 10 12 12 13 14 16 20 27 36 40 40 35 29 26 26 29 32 32 31 31 31 33 31 26 21 19 18 18 18 16
0 0 0 0 0 0 0 0 0 0 0 0 0 5 13 17 16 16 17 18 22 29 35 37 36 30 25 25 27 30 32 32 29 28 28 30 29 26 21 18 17 17 17 18
0 0 0 0 0 0 0 0 0 0 0 0 0 3 11 19 21 21 23 24 28 34 37 38 35 30 27 30 32 32 32 31 30 27 27 28 27 24 20 16 15 17 19 19
0 0 0 0 0 0 0 0 0 0 0 0 0 4 11 18 23 27 30 33 38 41 42 40 37 34 33 34 34 32 29 28 29 29 29 30 27 24 20 17 16 17 19 21
0 0 0 0 0 0 0 0 0 0 0 0 3 9 16 21 25 31 36 40 44 47 46 45 42 39 38 37 35 32 29 27 28 30 31 30 28 24 21 19 18 17 18 18
0 0 0 0 0 0 0 0 0 0 0 1 6 15 22 25 28 31 36 41 45 49 50 48 46 44 41 39 37 35 32 29 28 28 28 27 25 23 21 19 17 16 15 15
0 0 0 0 1 0 0 0 0 0 0 2 8 19 26 29 31 31 33 37 42 45 45 44 45 43 40 37 36 36 34 32 28 24 22 22 22 22 20 17 15 14 13 13
0 0 0 0 0 0 0 0 0 0 0 3 12 23 30 34 34 32 33 37 39 39 37 37 38 39 37 33 32 32 32 30 25 20 18 19 20 20 17 13 12 12 12 12
1 1 1 0 0 0 0 0 0 1 2 8 19 31 37 40 40 38 39 41 41 38 36 36 36 35 32 29 29 29 28 25 21 18 17 18 19 18 13 9 8 9 10 11
5 5 3 1 0 0 0 0 1 4 8 15 29 41 45 45 45 44 43 45 44 41 40 39 36 32 27 26 26 25 24 21 19 17 17 18 17 15 12 8 7 7 8 8
9 10 6 1 0 1 2 2 3 10 16 24 38 50 50 47 44 41 40 42 43 41 40 38 34 30 26 25 24 21 19 19 18 17 16 14 13 12 12 10 9 8 8 8
7 10 8 3 2 3 5 5 7 17 29 38 49 53 49 45 42 38 37 39 40 39 37 34 30 28 27 25 22 18 15 15 15 13 11 9 8 9 11 13 12 11 9 9
4 7 8 6 4 5 8 9 15 33 51 59 59 56 51 49 47 42 37 35 35 35 32 29 27 27 26 24 20 14 10 9 10 10 8 6 5 5 8 12 13 11 9 8
5 8 12 14 16 21 24 24 33 52 65 68 64 59 55 51 45 37 31 29 29 29 27 25 24 25 25 23 16 11 8 7 8 8 7 6 6 5 6 8 10 9 8 7
16 20 26 33 41 49 50 46 48 55 60 61 58 52 47 40 32 26 24 23 23 24 23 22 22 22 22 19 14 11 9 7 6 6 6 6 6 5 5 5 6 7 8 8
27 34 44 52 57 58 54 50 46 45 48 50 47 39 34 29 24 22 21 20 21 21 20 19 19 18 17 14 13 12 10 8 7 6 6 6 6 5 3 3 3 4 5 6
27 35 46 54 54 49 44 40 37 36 38 40 37 33 29 26 22 20 19 18 18 18 17 17 16 14 12 11 11 10 8 7 7 7 7 7 5 3 2 1 1 1 1 2
22 28 39 49 50 46 42 37 32 32 33 34 33 31 28 24 20 19 18 17 16 15 15 15 13 11 11 10 9 7 6 6 7 7 7 7 4 2 1 0 0 0 0 0

GEFSCGP_con_probscp_156.txt.gz
Probability
0 0 0 0 0 0 0 0 0 0 0 1 3 7 13 19 26 34 40 40 38 36 41 49 50 47 44 43 42 41 38 32 24 16 9 6 4 1 0 0 0 1 2 4
0 0 0 0 0 0 0 0 0 0 0 1 3 6 11 17 23 30 38 44 44 44 47 51 50 46 44 45 44 40 37 31 22 14 8 5 4 2 1 0 0 0 2 4
0 0 0 0 0 0 0 0 0 0 0 1 2 4 7 13 20 27 36 46 51 51 51 51 48 45 43 43 43 37 31 27 20 13 8 5 4 3 1 0 1 1 3 5
0 0 0 0 0 0 0 0 0 0 0 1 1 1 5 12 19 24 31 43 51 50 47 46 44 41 40 40 39 34 29 25 20 14 8 4 3 3 1 0 2 3 4 5
0 0 0 0 0 0 0 0 0 0 0 0 0 0 3 10 17 20 24 35 43 44 40 39 38 36 36 36 33 30 27 24 20 15 8 3 1 1 0 0 1 2 4 5
0 0 0 0 0 0 0 0 0 0 0 0 0 0 2 7 14 18 23 29 35 37 36 35 34 32 30 29 26 23 22 20 17 13 8 3 0 0 0 0 0 1 3 5
0 0 0 0 0 0 0 0 0 0 0 0 0 0 1 5 11 19 25 30 33 33 32 30 28 26 24 22 19 16 15 14 13 10 7 4 2 2 1 1 0 1 2 4
0 0 0 0 0 0 0 0 0 0 0 0 0 0 1 4 11 19 26 31 32 29 25 23 21 19 19 18 16 13 11 10 8 7 6 6 6 6 4 3 1 1 2 3
0 0 0 0 0 0 0 0 0 0 0 0 0 0 2 6 13 20 25 29 29 23 18 16 15 14 15 16 15 13 10 8 6 5 5 6 7 7 6 5 4 3 3 3
0 0 0 0 0 0 0 0 0 0 0 0 0 0 2 8 16 22 25 26 25 22 17 16 14 13 14 16 16 14 11 9 8 6 4 4 4 4 5 5 5 4 4 4
0 0 0 0 0 0 0 0 0 0 0 0 0 1 3 10 19 26 28 27 26 24 22 20 17 13 13 15 15 14 12 11 11 7 4 2 2 3 3 4 4 5 5 6
0 0 0 0 0 0 0 0 0 0 0 0 1 3 8 16 26 31 32 31 28 24 21 19 18 15 12 13 13 13 12 12 11 9 5 3 4 4 3 3 3 3 5 5
0 0 0 0 0 0 0 0 0 0 0 0 2 6 14 23 29 33 33 32 27 20 15 14 15 15 14 13 13 13 12 12 11 9 7 6 6 5 3 2 2 1 2 3
0 0 0 0 0 0 0 0 0 0 0 0 2 9 17 23 28 31 32 30 25 19 14 13 13 14 14 14 12 12 12 12 11 9 8 8 8 6 4 3 2 1 1 1
0 0 0 0 0 0 0 0 0 0 0 1 4 10 16 20 25 29 31 29 24 19 17 15 13 12 12 11 10 10 10 11 12 10 9 8 8 6 4 3 2 2 2 2
0 0 0 0 0 0 0 0 0 0 0 2 6 11 16 21 25 30 33 29 22 17 16 15 13 10 8 7 6 7 8 10 11 11 9 8 7 6 5 2 1 1 2 1
0 0 0 0 0 0 0 0 0 0 1 4 8 13 19 24 28 32 33 27 20 16 14 12 11 8 6 5 4 5 7 8 8 8 7 7 7 6 6 3 1 0 0 0
0 0 0 0 0 0 0 0 0 2 4 7 12 18 24 28 30 29 27 24 21 18 16 12 9 8 6 5 4 3 4 4 4 4 4 5 6 6 6 5 3 1 0 0
0 0 0 0 0 0 0 0 1 6 12 17 22 27 30 33 32 26 22 22 23 22 18 13 9 7 6 5 3 2 1 1 2 2 3 4 5 6 6 6 4 3 1 0
0 0 0 0 0 0 0 0 2 9 19 26 30 33 34 35 33 27 24 24 23 20 16 12 9 6 4 3 1 1 0 0 1 1 2 3 4 5 6 6 5 4 2 0
0 0 0 0 0 0 1 2 3 9 19 29 33 32 32 31 30 27 25 23 21 17 13 11 9 5 2 1 0 0 0 0 0 0 1 1 2 4 5 5 4 4 2 1
1 1 1 0 0 1 2 4 5 10 21 30 31 29 27 26 25 23 21 19 17 15 11 8 6 3 1 0 0 0 0 0 0 0 0 0 1 1 3 3 3 3 3 3
2 2 3 3 2 2 4 7 8 12 21 27 26 25 23 21 18 15 15 15 14 12 7 4 3 1 0 0 0 0 0 0 0 0 0 0 0 0 1 1 2 3 3 3
1 2 5 8 9 9 9 13 15 14 17 20 20 20 18 16 13 10 11 12 11 8 4 1 1 1 0 0 0 0 0 0 0 0 0 0 0 0 0 0 1 1 2 2
1 1 5 10 13 12 13 16 19 19 18 17 16 15 15 13 11 8 8 8 8 6 3 1 1 1 0 0 0 0 0 1 1 0 0 0 0 0 0 0 0 0 1 1
0 1 4 9 10 9 11 14 20 24 22 18 15 13 12 12 9 7 5 5 6 5 2 0 0 0 0 0 0 0 1 2 2 1 0 0 0 0 0 0 0 0 0 0

GEFSCGP_con_probscp_162.txt.gz
Probability
0 0 0 0 0 0 0 0 0 0 0 0 1 2 2 4 5 4 4 4 8 11 12 14 17 19 18 14 10 9 7 4 2 1 0 0 0 0 0 0 0 0 0 0
0 0 0 0 0 0 0 0 0 0 0 0 1 1 2 4 4 4 3 5 9 13 14 16 19 21 21 17 13 12 8 5 2 0 0 0 0 0 0 0 0 0 0 0
0 0 0 0 0 0 0 0 0 0 0 0 0 0 1 3 4 4 5 7 11 15 17 19 19 21 22 18 14 12 9 6 3 1 0 1 1 1 0 0 0 0 0 0
0 0 0 0 0 0 0 0 0 0 0 0 0 0 1 2 4 6 7 9 12 16 18 20 20 20 21 18 13 9 8 6 3 1 0 1 2 2 1 0 0 0 0 0
0 0 0 0 0 0 0 0 0 0 0 0 0 0 0 1 3 5 7 9 11 14 17 19 20 20 19 16 12 7 7 6 3 1 0 1 2 2 1 0 0 0 0 0
0 0 0 0 0 0 0 0 0 0 0 0 0 0 0 0 1 3 4 6 10 13 17 19 19 17 16 14 11 8 8 7 4 2 0 0 1 1 0 0 0 0 0 0
0 0 0 0 0 0 0 0 0 0 0 0 0 0 0 0 0 1 2 4 8 13 17 19 16 13 12 12 11 10 9 6 3 1 0 0 0 0 0 0 0 0 0 0
0 0 0 0 0 0 0 0 0 0 0 0 0 0 0 0 0 1 1 2 7 12 15 16 13 9 8 10 11 11 9 5 2 1 1 1 0 0 0 0 0 0 0 0
0 0 0 0 0 0 0 0 0 0 0 0 0 0 0 0 1 1 1 3 8 11 11 11 10 6 5 7 9 11 9 5 2 1 1 1 0 0 0 0 0 0 0 0
0 0 0 0 0 0 0 0 0 0 0 0 0 0 0 0 1 2 3 5 8 10 10 10 8 6 6 8 9 9 9 5 2 0 1 1 0 0 0 0 0 0 1 1
0 0 0 0 0 0 0 0 0 0 0 0 0 0 0 0 1 1 3 5 7 9 9 9 8 6 7 8 7 7 8 6 3 1 0 1 1 0 0 0 0 0 1 2
0 0 0 0 0 0 0 0 0 0 0 0 0 0 0 0 1 2 4 6 8 9 10 10 8 7 8 8 6 7 9 8 4 2 2 2 1 0 0 0 0 0 1 1
0 0 0 0 0 0 0 0 0 0 0 0 0 0 0 1 2 4 6 8 9 11 13 12 9 8 7 7 7 7 8 8 6 4 4 3 2 0 0 0 0 0 0 0
0 0 0 0 0 0 0 0 0 0 0 0 0 0 0 2 5 7 8 9 10 13 14 13 9 7 6 7 7 7 7 7 6 6 5 4 2 0 0 0 0 1 1 0
0 0 0 0 0 0 0 0 0 0 0 0 0 0 1 3 6 7 7 9 12 13 12 11 8 5 5 5 6 6 6 6 6 6 5 4 2 1 0 0 0 1 2 1
0 0 0 0 0 0 0 0 0 0 0 0 0 0 1 4 6 6 6 9 13 13 11 9 7 5 4 5 5 5 4 4 4 5 4 3 2 1 0 0 0 2 3 3
0 0 0 0 0 0 0 0 0 0 0 0 0 0 2 4 5 6 6 8 11 11 10 8 6 3 3 4 5 4 3 3 3 3 2 1 2 1 1 0 1 2 3 3
0 0 0 0 0 0 0 0 0 0 0 0 0 1 3 5 7 7 6 7 7 7 7 6 4 2 1 3 4 3 3 3 2 1 0 0 1 1 1 1 1 3 3 3
0 0 0 0 0 0 0 0 0 0 0 0 1 2 6 10 11 7 4 4 5 6 5 4 2 1 1 2 3 3 3 3 1 0 0 1 2 2 2 1 2 3 3 2
0 0 0 0 0 0 0 0 0 0 0 0 1 4 9 12 9 4 2 3 5 5 4 2 1 0 1 2 3 3 3 2 1 0 0 1 2 3 3 3 3 3 2 2
0 0 0 0 0 0 0 0 0 0 0 1 2 6 10 9 5 3 4 5 5 5 3 2 0 0 1 2 3 3 2 1 0 0 0 1 1 2 3 3 3 3 3 2
1 0 0 0 0 0 0 0 0 0 1 2 3 7 9 8 5 5 7 7 6 4 3 2 1 1 0 1 2 2 1 0 0 0 0 0 0 1 1 2 3 3 3 3
1 0 0 0 0 0 0 0 0 1 2 4 4 5 8 9 8 7 7 6 4 2 2 2 2 1 0 0 1 1 0 0 0 0 0 0 0 0 0 1 1 2 3 3
1 0 1 1 0 0 0 0 0 1 3 5 4 4 7 10 9 6 4 2 1 0 1 1 1 1 0 0 0 0 0 0 0 0 0 0 0 0 0 0 0 1 2 2
0 1 2 1 0 0 0 0 0 0 1 3 3 3 6 8 8 5 3 1 0 0 0 0 0 0 0 0 0 0 0 0 0 0 0 0 0 0 0 0 0 0 1 1
0 1 2 1 0 0 0 0 0 0 0 1 2 3 4 6 6 4 3 1 0 0 0 0 0 0 0 0 0 0 0 0 0 0 0 0 0 0 0 0 0 0 0 0

GEFSCGP_con_probscp_168.txt.gz
Probability
0 0 0 0 0 0 0 0 0 0 0 0 0 0 0 0 1 2 3 3 6 9 12 15 16 16 15 15 18 18 17 17 17 16 14 10 6 4 3 2 0 0 0 1
0 0 0 0 0 0 0 0 0 0 0 0 0 0 0 0 0 1 2 2 5 9 13 18 20 18 18 20 21 20 19 18 17 17 16 12 6 3 2 2 0 0 0 1
0 0 0 0 0 0 0 0 0 0 0 0 0 0 0 0 0 1 3 3 4 8 13 19 22 21 24 26 25 22 21 19 18 18 17 13 6 2 1 1 1 0 0 1
0 0 0 0 0 0 0 0 0 0 0 0 0 0 0 1 1 2 4 5 4 5 10 16 21 24 27 27 25 23 22 20 19 17 16 12 7 3 1 1 1 0 0 1
0 0 0 0 0 0 0 0 0 0 0 0 0 0 0 0 0 2 4 5 5 6 10 16 20 24 26 24 21 22 21 20 18 16 13 10 6 3 1 0 1 2 2 2
0 0 0 0 0 0 0 0 0 0 0 0 0 0 0 0 0 1 3 4 6 9 14 18 22 24 25 22 21 22 23 21 18 14 9 6 5 3 2 1 2 5 6 5
0 0 0 0 0 0 0 0 0 0 0 0 0 0 0 0 0 1 2 3 8 14 18 20 23 25 24 23 22 23 23 21 18 14 8 5 6 6 4 2 3 7 9 8
0 0 0 0 0 0 0 0 0 0 0 0 0 0 0 0 0 1 2 5 11 18 21 20 19 20 22 21 20 21 21 18 15 12 9 7 7 7 4 2 4 7 8 8
0 0 0 0 0 0 0 0 0 0 0 0 0 0 0 0 0 1 2 6 14 20 21 18 13 13 16 17 16 18 19 16 12 9 7 6 6 6 5 3 3 6 6 6
0 0 0 0 0 0 0 0 0 0 0 0 0 0 0 1 1 1 3 9 16 19 17 15 13 13 13 14 14 15 17 17 13 10 8 7 7 6 5 4 4 5 5 5
0 0 0 0 0 0 0 0 0 0 0 0 0 0 1 2 2 3 6 13 19 20 17 17 19 19 15 15 16 16 17 16 15 12 10 8 6 4 3 3 3 5 6 6
0 0 0 0 0 0 0 0 0 0 0 0 0 1 2 3 4 7 12 19 24 25 24 25 27 24 21 22 22 20 18 16 14 11 10 8 6 4 3 3 5 6 7 7
0 0 0 0 0 0 0 0 0 0 0 0 0 1 2 4 6 12 19 26 30 30 31 33 31 28 27 28 27 22 18 16 13 10 9 9 9 9 8 7 8 9 9 8
0 0 0 0 0 0 0 0 0 0 0 0 0 0 2 4 8 16 25 31 32 32 35 36 34 31 29 29 26 22 18 15 13 11 11 11 13 13 12 11 12 11 9 8
0 0 0 0 0 0 0 0 0 0 0 0 0 0 1 4 10 19 27 31 30 30 33 35 34 31 28 25 22 20 17 14 13 14 14 13 13 12 12 12 12 11 9 8
0 0 0 0 0 0 0 0 0 0 0 0 0 0 1 4 11 20 26 27 26 26 29 33 32 30 26 22 19 17 15 14 14 15 15 13 11 11 11 11 10 10 9 9
0 0 0 0 0 0 0 0 0 0 0 0 0 0 0 4 10 17 20 21 22 23 26 29 28 27 25 21 18 16 15 14 13 13 12 9 8 8 9 9 8 8 9 10
0 0 0 0 0 0 0 0 0 0 0 0 1 1 3 6 10 12 14 17 21 24 26 27 26 24 22 20 18 17 16 13 11 10 8 6 5 5 6 7 7 7 7 8
0 0 0 0 0 0 0 0 0 0 1 1 2 4 7 9 9 10 14 18 23 28 30 30 27 24 22 20 19 18 17 15 11 8 6 5 4 3 4 5 5 6 6 6
1 1 0 0 0 0 0 0 0 1 2 4 4 7 10 12 14 19 24 28 31 32 33 32 28 24 23 22 20 19 17 14 10 5 3 3 3 3 3 4 5 6 5 5
0 0 0 0 0 0 0 1 3 7 10 11 12 14 17 20 25 34 38 39 37 32 28 26 24 23 23 21 19 17 14 10 6 3 1 1 1 2 3 4 6 6 5 5
0 0 1 1 1 2 4 6 12 19 22 21 22 23 25 29 35 41 42 39 34 27 22 20 20 21 21 20 17 14 10 6 4 2 0 0 0 1 2 3 5 5 4 3
2 4 6 6 5 5 8 13 17 22 26 26 25 25 26 29 35 39 37 31 25 21 18 17 16 16 17 17 14 10 6 5 4 2 1 0 0 0 0 1 2 3 2 2
6 9 12 12 11 10 11 14 17 19 21 23 22 19 19 24 32 36 32 25 19 14 13 13 13 12 12 11 8 6 4 4 4 3 2 1 0 0 0 0 0 1 1 1
12 14 15 16 16 15 14 16 18 19 20 21 20 16 13 18 27 30 26 21 14 9 9 10 9 9 9 9 6 4 3 3 3 3 2 1 0 0 0 0 0 0 0 1
14 15 16 17 19 17 17 19 20 21 23 23 21 16 10 13 22 25 22 17 11 8 8 8 7 6 8 9 7 4 2 3 3 3 2 1 0 0 0 0 0 0 0 0

GEFSCGP_con_probscp_174.txt.gz
Probability
0 0 0 0 0 0 0 0 0 0 1 1 1 0 0 1 3 8 21 35 43 46 47 48 48 50 52 52 51 48 44 39 32 26 24 21 19 15 11 11 13 12 8 6
0 0 0 0 0 0 0 0 0 0 0 0 0 0 0 0 2 6 19 33 44 51 54 54 53 54 57 57 52 47 43 39 33 29 26 23 20 17 13 13 14 12 8 5
0 0 0 0 0 0 0 0 0 0 0 0 0 1 1 1 1 4 13 26 40 52 61 62 59 58 60 60 55 47 44 41 36 33 30 26 23 20 16 14 15 13 8 5
0 0 0 0 0 0 0 0 0 0 0 0 0 1 2 1 1 2 7 17 30 46 59 63 61 58 58 59 57 52 49 46 40 36 35 31 27 22 17 14 13 13 10 8
0 0 0 0 0 0 0 0 0 0 0 0 0 1 1 1 2 3 6 13 24 39 53 59 60 60 57 56 57 54 52 49 44 39 37 35 31 24 17 13 13 13 12 10
0 0 0 0 0 0 0 0 0 0 0 0 0 0 0 0 1 4 9 15 23 36 50 57 60 61 57 53 54 55 54 52 47 43 40 37 32 25 18 15 15 15 14 12
0 0 0 0 0 0 0 0 0 0 0 0 0 1 2 3 3 6 12 19 26 37 50 57 59 60 56 54 55 57 57 54 49 44 41 37 32 25 19 16 16 16 15 14
0 0 0 0 0 0 0 0 0 0 0 0 0 2 5 7 7 9 15 23 29 36 45 51 54 56 55 54 56 58 58 54 48 43 39 35 30 24 20 19 18 17 15 14
0 0 0 0 0 0 0 0 0 0 0 0 0 3 8 11 11 13 19 27 32 34 37 42 47 50 50 50 52 56 57 52 45 39 35 32 28 23 21 22 21 18 14 12
0 0 0 0 0 0 0 0 0 0 0 0 0 2 8 13 14 17 23 29 33 33 32 37 43 46 46 45 47 51 52 47 40 36 33 31 29 24 23 24 23 20 16 13
0 0 0 0 0 0 0 0 0 0 0 0 0 1 5 11 16 21 27 31 32 32 33 40 47 48 46 44 45 46 44 38 32 29 28 28 26 23 21 22 22 22 19 16
0 0 0 0 0 0 0 0 0 0 0 0 0 1 3 8 15 25 32 34 34 35 39 48 56 54 48 45 46 44 39 32 26 23 24 25 23 20 19 20 21 20 17 15
0 0 0 0 0 0 0 0 0 0 0 0 0 2 4 9 20 33 39 39 39 44 50 58 61 58 51 48 48 44 38 32 26 23 25 24 21 19 19 20 20 18 14 12
0 0 0 0 0 0 0 0 0 0 0 0 0 3 9 16 28 42 48 47 46 53 60 63 63 61 56 53 50 45 39 32 28 27 26 25 22 19 19 20 21 18 15 13
0 0 0 0 0 0 0 0 0 0 0 0 2 7 17 27 38 50 55 54 54 59 64 65 64 63 60 55 50 46 40 33 31 29 26 23 20 19 18 19 19 18 16 15
1 1 0 0 0 0 0 0 0 0 1 1 5 13 25 36 48 56 59 60 62 65 66 66 64 62 59 55 49 45 41 37 35 30 24 19 17 16 16 16 16 15 14 13
3 3 2 0 0 0 0 0 0 1 3 5 10 18 29 41 52 62 66 66 67 70 69 66 65 61 57 53 48 44 40 38 37 31 22 16 14 14 13 12 12 12 11 10
7 7 4 0 0 0 0 0 1 3 8 13 19 24 31 41 52 62 68 70 73 74 72 68 64 59 54 51 47 42 38 37 36 30 21 15 14 13 12 10 9 10 10 10
8 8 5 1 0 0 1 1 1 5 12 21 27 30 32 37 47 57 64 69 75 76 72 68 62 55 50 48 46 42 38 36 34 28 20 16 15 14 12 10 9 9 11 12
5 7 4 1 0 1 3 4 3 6 18 29 35 37 37 39 47 59 67 70 73 73 69 65 61 55 51 49 46 44 40 36 31 25 18 15 15 13 11 9 8 9 11 11
2 4 3 2 1 4 9 9 10 19 32 42 45 46 49 52 60 70 75 75 73 70 66 63 60 57 53 50 47 43 38 32 26 20 15 12 11 9 6 6 6 8 9 9
2 3 4 5 7 16 25 25 29 42 52 54 53 54 58 63 70 78 80 78 74 69 64 60 57 54 50 46 42 36 30 24 19 14 9 7 6 3 2 2 3 4 5 6
7 9 13 16 22 34 43 44 47 54 57 54 51 53 57 61 69 77 79 75 70 65 59 54 50 45 41 38 33 26 21 16 13 10 6 2 1 1 0 1 1 1 1 2
13 18 24 28 34 42 47 47 47 47 48 46 45 46 49 56 65 73 73 69 64 58 51 47 43 38 33 30 24 18 14 11 9 6 3 1 0 0 0 0 0 0 0 0
18 23 29 33 36 39 40 39 37 37 41 43 42 42 45 53 62 66 64 60 56 51 46 43 39 33 27 23 17 12 10 9 7 4 2 0 0 0 0 0 0 0 0 0
21 25 30 31 34 38 39 35 33 33 38 44 45 43 45 52 59 61 58 55 52 46 42 40 36 28 22 17 12 9 8 7 5 3 1 1 0 0 0 0 0 0 0 0

GEFSCGP_con_probscp_180.txt.gz
Probability
0 0 0 0 0 0 0 0 0 0 1 1 2 4 8 14 19 22 25 27 24 20 21 27 33 34 33 29 25 21 17 13 11 11 9 7 4 1 0 0 0 1 1 1
0 0 0 0 0 0 0 0 0 0 1 2 2 3 6 13 19 22 26 28 25 22 25 31 35 35 33 29 24 20 16 14 13 13 10 8 4 2 1 0 0 0 0 0
0 0 0 0 0 0 0 0 0 0 1 1 2 2 4 10 15 19 23 29 29 27 31 36 38 37 35 30 24 20 16 15 15 13 10 7 5 4 3 2 0 0 0 0
0 0 0 0 0 0 0 0 0 0 0 0 1 1 3 8 12 15 21 29 33 34 36 38 39 38 37 33 26 20 17 15 14 11 9 7 6 5 4 2 0 0 0 0
0 0 0 0 0 0 0 0 0 0 0 0 0 0 2 7 10 13 20 30 37 39 40 40 40 39 37 34 27 20 16 14 12 9 7 7 6 5 3 1 0 0 0 0
0 0 0 0 0 0 0 0 0 0 0 0 0 0 1 3 7 12 20 30 39 43 43 41 40 38 35 32 27 21 16 12 10 9 8 8 6 4 3 1 0 0 0 0
0 0 0 0 0 0 0 0 0 0 0 0 0 0 0 2 6 14 22 30 39 43 43 42 41 36 30 27 25 21 16 11 9 9 10 9 6 4 3 2 0 0 0 0
0 0 0 0 0 0 0 0 0 0 0 0 0 0 1 4 10 18 26 33 39 39 39 42 40 33 26 24 24 22 17 13 11 11 11 9 6 5 4 2 0 0 0 0
0 0 0 0 0 0 0 0 0 0 0 0 0 0 2 8 15 22 28 34 37 34 35 37 34 27 23 23 23 23 20 17 15 13 11 8 5 3 2 1 0 0 0 0
0 0 0 0 0 0 0 0 0 0 0 0 0 0 2 8 16 22 27 32 33 30 30 29 24 21 21 21 21 19 17 15 14 13 11 8 4 2 1 0 0 0 0 0
0 0 0 0 0 0 0 0 0 0 0 0 0 0 1 6 13 21 27 31 31 28 26 23 19 19 20 19 16 13 10 8 9 9 9 7 4 3 2 0 0 0 0 0
0 0 0 0 0 0 0 0 0 0 0 0 0 0 2 7 15 23 30 34 33 28 24 21 19 19 19 16 14 12 9 7 6 6 7 6 4 2 1 0 0 0 0 0
0 0 0 0 0 0 0 0 0 0 0 0 0 0 4 11 20 25 32 38 37 31 26 23 21 19 17 15 14 15 13 9 6 5 5 4 2 0 0 1 1 1 1 1
0 0 0 0 0 0 0 0 0 0 0 0 0 2 7 17 26 31 35 38 37 34 32 31 27 22 17 15 15 16 15 11 8 6 4 2 1 1 1 2 2 1 1 1
0 0 0 0 0 0 0 0 0 0 0 1 3 6 11 23 36 42 43 42 38 35 35 35 32 25 19 16 15 15 13 10 8 7 3 1 2 3 4 4 4 3 2 1
0 0 0 0 0 0 0 1 1 1 0 2 7 11 18 33 47 53 52 48 42 37 35 35 33 27 21 17 15 14 12 10 8 7 4 3 4 5 6 5 4 3 2 1
0 0 0 0 0 0 0 2 4 6 5 7 12 18 28 42 54 58 57 53 48 42 37 35 33 29 23 19 16 15 13 11 9 7 6 5 5 6 6 5 4 3 1 0
0 0 0 0 0 0 1 2 6 11 14 18 22 30 39 49 57 59 57 55 52 46 39 34 33 30 26 22 18 17 15 12 10 9 9 8 7 7 6 4 3 2 1 0
0 0 0 0 0 0 1 3 8 15 21 27 34 42 53 61 62 58 54 54 51 44 38 33 30 29 28 23 18 15 14 12 10 10 10 9 8 6 4 3 2 1 0 0
0 0 0 0 0 1 4 8 10 15 23 32 40 50 61 67 63 55 52 52 48 42 37 33 28 26 26 22 17 13 12 12 10 9 9 8 6 4 2 1 1 0 0 0
0 0 0 0 1 2 8 14 14 15 25 36 44 52 58 58 54 52 55 55 50 43 38 33 26 21 19 18 16 13 11 10 8 7 6 5 3 1 0 0 0 0 0 0
0 0 0 0 1 3 11 17 17 21 32 40 45 50 53 51 52 55 58 57 52 45 38 30 23 17 15 15 15 13 10 7 6 5 4 2 1 0 0 0 0 0 0 0
1 1 3 6 7 9 14 19 22 29 40 44 46 48 51 55 57 56 54 52 48 41 33 26 20 16 14 14 13 10 7 6 5 3 2 1 0 0 0 0 0 0 0 0
2 3 9 16 20 21 23 25 28 34 42 46 45 46 50 56 55 50 45 40 38 34 28 23 20 17 14 12 11 8 5 4 3 2 1 0 0 0 0 0 0 0 0 0
3 5 11 19 24 25 27 29 31 33 37 41 41 41 43 46 46 41 35 31 29 28 24 21 19 15 11 9 7 5 2 1 2 1 0 0 0 0 0 0 0 0 0 0
5 6 11 16 19 22 25 27 29 30 33 36 37 35 34 37 37 35 31 28 26 24 21 18 17 14 9 6 4 2 1 0 1 0 0 0 0 0 0 0 0 0 0 0

GEFSCGP_con_probscp_186.txt.gz
Probability
0 0 0 0 0 0 0 0 0 0 0 0 0 1 3 4 3 3 4 6 7 7 8 10 12 10 8 6 5 5 6 7 6 5 2 0 0 0 0 0 0 0 0 0
0 0 0 0 0 0 0 0 0 0 0 0 0 1 3 3 3 2 3 4 7 9 10 11 12 11 8 5 5 6 7 7 6 5 3 1 0 0 0 0 0 0 0 0
0 0 0 0 0 0 0 0 0 0 0 0 0 1 1 2 2 1 1 3 7 12 13 14 15 13 9 6 6 7 7 6 6 7 5 3 1 1 0 0 0 0 0 0
0 0 0 0 0 0 0 0 0 0 0 0 0 0 0 1 2 1 1 2 9 14 16 16 16 15 12 8 7 8 6 5 6 7 6 5 4 2 0 0 1 1 0 0
0 0 0 0 0 0 0 0 0 0 0 0 0 0 0 0 1 1 1 4 10 16 17 15 15 16 14 10 7 7 5 4 4 6 6 6 5 3 1 1 2 2 1 0
0 0 0 0 0 0 0 0 0 0 0 0 0 0 0 0 0 1 3 6 12 17 14 11 13 17 16 11 8 6 5 4 4 6 6 6 6 4 3 2 3 2 1 0
0 0 0 0 0 0 0 0 0 0 0 0 0 0 0 0 0 2 6 8 12 14 12 9 12 16 16 12 9 7 6 5 4 6 6 6 6 6 4 3 3 2 1 0
0 0 0 0 0 0 0 0 0 0 0 0 0 0 1 1 1 4 8 11 12 12 11 9 12 14 14 12 10 8 6 4 4 5 6 6 6 5 4 3 3 2 1 0
0 0 0 0 0 0 0 0 0 0 0 0 0 0 1 2 3 5 9 10 12 12 10 9 11 13 13 11 10 8 6 4 4 5 6 6 5 4 3 3 2 1 0 0
0 0 0 0 0 0 0 0 0 0 0 0 0 0 1 1 3 5 7 9 11 13 13 11 12 12 11 10 9 8 6 4 4 5 6 6 6 5 3 1 1 0 0 0
0 0 0 0 0 0 0 0 0 0 0 0 0 0 0 1 3 5 6 8 11 16 17 16 14 13 11 8 7 6 5 4 4 5 5 4 4 4 2 1 0 0 0 0
0 0 0 0 0 0 0 0 0 0 0 0 0 0 1 3 6 7 7 8 12 16 19 19 17 14 10 7 5 5 5 5 4 3 2 2 1 1 1 0 0 0 0 0
0 0 0 0 0 0 0 0 0 0 0 0 0 0 1 3 6 8 9 10 12 14 17 17 16 12 8 5 4 4 5 4 3 2 2 1 0 0 0 0 0 0 0 0
0 0 0 0 0 0 0 0 0 0 0 0 0 0 1 2 4 7 10 12 13 13 14 13 12 10 7 5 5 4 4 4 3 2 2 1 0 0 0 0 0 0 0 0
0 0 0 0 0 0 0 1 0 0 0 0 0 0 0 1 4 8 12 15 16 15 15 14 12 10 9 8 8 7 5 4 4 3 2 1 1 1 1 1 1 1 0 0
0 0 0 0 0 0 0 0 1 1 1 1 0 0 1 3 7 13 17 19 20 20 19 18 15 12 11 11 12 11 9 7 6 4 2 3 3 3 3 2 2 1 0 0
0 0 0 0 0 0 0 0 1 4 5 3 1 1 4 7 12 19 23 23 24 24 21 19 16 13 11 11 12 12 11 9 7 6 5 6 7 6 5 3 1 0 0 0
0 0 0 0 0 0 0 0 1 4 6 6 5 6 9 13 17 22 25 26 26 25 21 19 15 13 11 11 10 11 10 9 7 7 7 7 8 8 6 2 0 0 0 0
0 0 0 0 0 0 0 0 1 2 3 7 11 15 20 24 25 23 24 28 29 25 20 19 16 13 12 10 8 9 9 8 6 6 6 7 8 7 5 2 1 0 0 0
0 0 0 0 0 0 0 2 3 1 1 6 14 22 28 30 24 20 24 29 28 24 20 20 17 14 12 9 8 9 9 8 6 5 4 6 6 5 4 2 1 0 0 0
0 0 0 0 0 1 2 6 6 2 2 7 15 23 30 27 19 20 28 30 26 21 19 20 19 16 12 9 8 8 9 8 6 5 4 4 4 4 3 2 1 0 0 0
0 0 0 0 1 2 4 8 8 4 5 11 18 24 29 26 22 27 34 33 27 20 18 18 18 15 10 7 5 6 6 6 5 4 3 3 3 3 3 2 1 0 0 0
1 0 1 2 3 5 7 10 9 7 11 17 22 27 29 28 29 33 37 35 28 22 18 17 17 13 7 2 2 3 3 3 3 3 3 3 3 2 1 1 0 0 0 0
2 2 3 5 8 11 13 13 12 11 16 22 26 28 29 30 33 36 36 34 28 22 19 17 15 11 4 0 0 1 1 1 2 3 3 3 2 1 0 0 0 0 0 0
3 2 4 7 10 13 16 15 12 14 19 25 27 27 28 30 34 35 34 31 25 18 15 14 11 7 3 0 0 0 0 0 1 1 2 1 1 0 0 0 0 0 0 0
3 2 3 6 7 10 14 13 11 13 19 23 25 25 26 29 34 35 33 29 22 14 10 9 7 4 1 0 0 0 0 0 0 0 1 0 0 0 0 0 0 0 0 0

GEFSCGP_con_probscp_192.txt.gz
Probability
0 0 0 0 0 0 0 0 0 0 0 0 0 1 3 5 5 3 2 2 3 5 7 9 10 9 9 8 9 10 11 11 11 10 9 9 7 4 1 0 0 0 0 0
0 0 0 0 0 0 0 0 0 0 0 0 0 1 3 5 5 4 3 3 5 7 11 15 16 15 12 10 10 12 13 12 11 12 11 10 7 4 1 0 0 0 0 0
0 0 0 0 0 0 0 0 0 0 0 0 0 1 2 4 5 5 5 5 6 9 14 19 21 20 17 14 14 14 14 13 11 12 12 11 8 6 4 2 2 1 1 1
0 0 0 0 0 0 0 0 0 0 0 0 0 1 2 4 5 6 7 8 7 9 14 18 19 19 19 18 15 14 14 12 11 11 11 11 10 7 5 5 4 4 4 4
0 0 0 0 0 0 0 0 0 0 0 0 0 0 1 1 2 3 6 7 7 10 15 16 15 18 19 17 14 12 12 11 10 11 11 10 9 7 6 6 7 6 6 6
0 0 0 0 0 0 0 0 0 0 0 0 0 0 0 0 0 2 4 7 9 11 15 16 15 17 18 17 16 14 13 11 9 10 9 8 8 8 8 8 8 7 6 6
0 0 0 0 0 0 0 0 0 0 0 0 0 0 0 0 1 2 5 8 11 13 15 16 16 18 20 22 23 21 18 13 8 7 7 7 8 10 11 11 10 8 6 5
0 0 0 0 0 0 0 0 0 0 0 0 0 0 0 0 1 4 7 10 13 14 15 17 19 20 22 25 25 25 21 14 8 6 8 9 10 10 11 11 10 8 7 4
0 0 0 0 0 0 0 0 0 0 0 0 0 0 0 2 4 7 10 12 14 15 16 19 21 22 24 24 24 24 22 16 10 8 9 10 11 10 9 10 10 9 8 6
0 0 0 0 0 0 0 0 0 0 0 0 0 0 1 3 5 8 11 14 15 16 17 21 24 25 25 24 24 24 22 18 12 8 7 9 11 11 11 11 11 10 10 9
0 0 0 0 0 0 0 0 0 0 0 0 0 0 0 2 4 6 10 13 16 17 19 23 26 26 26 25 23 23 22 17 13 10 9 10 11 12 13 12 11 12 13 13
0 0 0 0 0 0 0 0 0 0 0 0 0 0 0 0 1 5 11 15 17 19 21 23 26 27 27 25 23 22 20 17 15 15 15 14 13 12 12 11 10 12 13 12
0 0 0 0 0 0 0 0 0 0 0 0 0 0 1 1 3 7 14 20 24 26 26 26 28 30 31 30 29 25 21 19 18 18 18 18 15 13 12 11 10 10 9 8
0 0 0 0 0 0 0 0 0 0 0 0 0 0 1 3 7 10 16 25 31 34 34 34 36 38 37 37 35 30 23 21 20 19 18 17 15 14 14 13 11 9 7 7
0 0 0 0 0 0 0 0 0 0 0 0 0 0 1 5 9 11 17 27 36 40 41 41 45 45 42 40 36 30 25 23 23 20 18 16 15 15 14 13 11 9 8 7
0 0 0 0 0 0 0 0 0 0 0 0 0 1 3 7 11 13 20 29 38 44 45 44 47 48 45 41 35 30 27 27 26 23 20 19 17 15 13 10 9 8 6 6
0 0 0 0 0 0 0 0 0 0 1 1 1 3 5 10 14 17 24 33 40 46 49 48 48 48 46 43 38 35 33 31 28 25 23 22 20 17 13 9 7 6 4 4
0 0 0 0 0 0 0 1 1 1 3 3 4 5 8 13 16 20 28 37 43 47 51 52 50 49 47 45 42 37 34 31 29 26 24 24 22 18 14 10 7 5 4 4
0 0 0 0 0 0 1 3 3 4 6 7 9 11 14 16 16 22 34 45 50 52 54 54 52 49 47 46 43 36 31 29 27 26 25 24 21 17 13 10 7 6 6 6
0 0 0 0 0 1 3 7 8 7 10 16 19 21 22 21 21 30 45 54 57 58 57 55 53 50 46 43 41 36 32 28 26 25 24 22 19 16 13 9 7 6 6 6
1 2 1 0 0 2 6 12 14 16 22 29 33 32 31 32 34 44 55 58 59 61 62 59 55 51 46 42 40 38 35 31 26 24 22 19 16 13 11 8 7 6 6 6
3 4 4 2 2 6 14 22 28 35 41 43 43 41 39 42 46 51 57 60 61 64 65 62 57 52 47 43 41 39 36 31 25 21 19 17 13 10 8 7 6 6 6 6
7 9 12 12 11 16 26 36 45 51 54 52 50 46 43 45 49 53 58 62 65 67 65 60 55 51 46 42 40 37 33 28 23 20 17 14 10 8 6 6 5 4 5 6
12 17 22 23 23 25 33 42 48 52 55 56 53 49 46 45 49 55 59 63 66 67 63 58 53 48 42 39 37 34 30 26 22 19 16 12 10 8 7 6 4 4 4 4
14 20 26 28 27 29 35 40 43 47 52 57 56 52 47 46 48 52 55 58 61 61 58 55 52 46 40 36 33 29 25 22 19 17 14 12 10 9 8 7 5 3 2 2
14 19 24 26 27 30 36 40 42 45 51 57 59 55 49 46 47 48 51 53 55 55 55 53 50 44 39 35 29 24 21 18 16 13 11 11 11 10 9 7 4 2 1 1

GEFSCGP_con_probscp_198.txt.gz
Probability
0 0 0 0 0 0 0 0 0 0 0 0 0 1 3 6 11 18 24 27 30 35 40 40 37 37 43 48 45 37 30 24 20 16 15 16 16 15 12 7 4 2 1 0
0 0 0 0 0 0 0 0 0 0 0 0 0 0 2 5 8 14 21 25 31 38 44 46 43 42 48 52 49 43 35 28 21 17 16 16 17 15 11 6 5 5 3 2
0 0 0 0 0 0 0 0 0 0 0 0 0 1 3 5 5 8 14 21 30 40 48 52 51 50 53 56 54 48 43 35 25 20 18 17 17 15 10 9 11 10 7 6
0 0 0 0 0 0 0 0 0 0 0 0 0 2 5 6 5 6 9 14 26 38 47 53 54 54 55 57 57 56 52 43 32 25 21 17 15 13 12 15 17 16 13 10
0 0 0 0 0 0 0 0 0 0 0 0 0 2 5 7 6 7 8 11 20 31 41 48 53 55 54 53 57 61 60 50 36 27 22 17 13 11 13 16 19 19 18 16
0 0 0 0 0 0 0 0 0 0 0 0 0 1 3 5 6 7 9 12 18 26 36 45 53 54 50 48 52 58 59 50 35 24 19 16 13 13 14 15 17 19 20 19
0 0 0 0 0 0 0 0 0 0 0 0 0 1 2 4 6 7 11 17 21 28 37 46 52 54 49 46 50 53 53 46 35 23 17 15 15 16 16 16 16 18 19 20
0 0 0 0 0 0 0 0 0 0 0 0 0 1 4 6 8 11 15 20 23 29 37 44 50 51 48 46 48 50 49 45 37 27 19 16 16 16 16 16 15 16 17 18
0 0 0 0 0 0 0 0 0 0 0 0 0 1 5 9 12 15 18 21 25 29 33 39 46 48 47 46 46 47 50 47 38 29 22 17 16 16 15 15 15 15 15 15
0 0 0 0 0 0 0 0 0 0 0 0 0 1 6 12 16 18 20 22 25 28 31 37 43 46 45 44 43 46 50 47 38 30 23 18 19 21 19 16 15 15 14 14
0 0 0 0 0 0 0 0 0 0 0 0 0 1 4 10 16 19 20 22 24 27 32 37 43 46 45 42 41 44 48 46 39 32 28 24 24 25 23 20 17 15 15 15
0 0 0 0 0 0 0 0 0 0 0 0 0 1 3 6 12 17 22 26 27 30 36 41 47 50 49 46 44 45 46 45 40 36 34 32 31 28 25 22 20 19 17 16
0 0 0 0 0 0 0 0 0 0 0 0 0 2 3 5 9 17 28 35 37 40 44 48 54 57 56 54 52 49 47 44 41 40 39 38 35 30 25 23 23 22 19 17
0 0 0 0 0 0 0 0 0 0 0 0 1 3 6 8 12 22 34 42 46 50 51 55 62 66 66 65 62 57 53 48 46 45 44 41 37 31 25 24 23 20 17 16
0 0 0 0 0 0 0 0 0 0 0 0 1 5 10 13 19 30 41 47 53 57 58 62 69 74 76 73 69 64 61 56 52 49 47 45 39 33 28 26 25 21 16 14
1 1 0 0 0 0 0 0 0 0 0 0 2 8 14 20 28 40 48 53 59 64 67 69 72 77 79 77 72 69 66 62 57 52 48 46 42 37 33 30 27 22 16 13
5 6 3 0 0 0 0 0 0 0 0 1 4 11 21 29 38 48 55 59 65 70 72 73 74 76 77 77 75 72 68 64 61 55 50 47 44 41 37 32 27 22 16 14
12 14 7 1 0 0 0 1 1 1 3 5 9 17 27 36 45 55 61 65 70 74 78 79 78 77 76 76 76 73 68 64 61 57 50 47 46 42 36 30 25 21 17 14
12 15 9 2 0 0 1 2 3 4 8 13 18 25 31 36 45 57 67 72 74 79 82 82 81 79 77 76 74 71 67 65 63 57 50 46 43 37 29 24 21 19 16 13
7 10 7 2 1 1 4 6 6 9 15 23 28 33 36 41 49 62 74 78 79 81 82 82 81 80 78 77 74 70 66 65 62 55 46 40 36 30 22 18 17 16 14 11
2 4 3 1 1 4 9 12 14 22 32 38 41 42 46 55 64 73 81 84 83 84 82 82 82 81 79 79 76 72 67 63 59 52 42 35 31 25 18 15 15 14 12 10
4 5 6 7 10 18 24 27 34 45 52 52 50 51 57 68 76 81 84 86 86 86 84 83 83 80 78 77 76 74 68 62 57 50 42 35 30 23 18 16 15 13 11 9
12 14 19 24 29 37 41 44 51 57 60 58 55 56 61 69 75 78 80 82 84 84 83 81 79 76 73 71 70 70 66 59 54 49 42 36 30 23 19 18 15 12 9 8
17 23 32 40 43 43 45 49 52 53 54 55 56 56 59 65 69 71 74 77 78 78 78 78 76 72 69 65 63 62 60 55 49 45 40 35 28 22 19 17 13 10 8 7
19 27 38 44 44 39 38 40 42 43 44 47 51 54 60 64 65 66 69 73 74 74 74 76 75 71 67 62 59 57 54 49 45 42 37 31 25 20 17 13 10 7 6 5
19 28 37 41 41 40 38 34 34 37 38 40 45 53 61 65 64 64 67 71 72 72 73 75 74 71 66 61 57 55 51 46 44 41 35 28 22 19 14 10 7 4 3 2